Monclova, OH

12:59 PM EDT on September 26, 2016 (GMT -0400)
Toledo Express

Weather History for KTOL - February, 2014

Change the Weather History Date:

Tuesday, February 25, 2014

  Actual Average Record
Temperature  
Mean Temperature 18 °F 31 °F  
Max Temperature 23 °F 39 °F 70 °F (2000)
Min Temperature 13 °F 23 °F -6 °F (1963)
Degree Days  
Heating Degree Days 47 34  
Month to date heating degree days 1150 927  
Since 1 July heating degree days 5159 4476  
Cooling Degree Days 0 0  
Month to date cooling degree days 0 0  
Year to date cooling degree days 0 0  
Moisture  
Dew Point 12 °F    
Average Humidity 75    
Maximum Humidity 88    
Minimum Humidity 62    
Precipitation  
Precipitation 0.06 in 0.08 in 0.87 in (1961)
Month to date precipitation 3.89 1.83  
Year to date precipitation 7.18 3.88  
Snow  
Snow 0.80 in 0.30 in - ()
Month to date snowfall 21.6 8.6  
Since 1 July snowfall 73.5 29.7  
Snow Depth 4.00 in    
Sea Level Pressure  
Sea Level Pressure 30.12 in    
Wind  
Wind Speed 10 mph (West)    
Max Wind Speed 22 mph    
Max Gust Speed 26 mph    
Visibility 8 miles    
Events Snow    
T = Trace of Precipitation, MM = Missing Value Source: NWS Daily Summary

Daily Weather History Graph

Daily Weather History Graph

Search for Another Location

Airport or City:

Trip Planner

Search our weather history database for the weather conditions in past years. The results will help you decide how hot, cold, wet, or windy it might be!

Date:

Astronomy

Feb. 25, 2014 Rise Set
Actual Time 7:16 AM EST 6:21 PM EST
Civil Twilight 6:48 AM EST 6:49 PM EST
Nautical Twilight 6:15 AM EST 7:21 PM EST
Astronomical Twilight 5:43 AM EST 7:53 PM EST
Moon 4:12 AM EST (2/25) 2:23 PM EST (2/25)
Length of Visible Light 12h 00m
Length of Day
11h 04m
Waning Crescent, 18% of the Moon is Illuminated
Feb 25
Waning Crescent
Mar 1
New
Mar 8
First Quarter
Mar 16
Full
Mar 23
Last Quarter

Hourly Weather History & Observations

Time (EST) Temp. Windchill Dew Point Humidity Pressure Visibility Wind Dir Wind Speed Gust Speed Precip Events Conditions
12:52 AM 19.0 °F 10.0 °F 12.0 °F 74% 30.17 in 10.0 mi WSW 6.9 mph - N/A   Scattered Clouds
1:52 AM 19.0 °F 8.2 °F 12.0 °F 74% 30.17 in 10.0 mi West 9.2 mph - N/A   Overcast
2:52 AM 19.9 °F 8.6 °F 10.9 °F 68% 30.17 in 10.0 mi West 10.4 mph - N/A   Overcast
3:13 AM 19.4 °F 7.9 °F 12.2 °F 74% 30.14 in 5.0 mi West 10.4 mph - 0.00 in Snow Light Snow
3:35 AM 19.4 °F 9.5 °F 15.8 °F 86% 30.14 in 2.5 mi West 8.1 mph - 0.01 in Snow Light Snow
3:43 AM 19.4 °F 9.5 °F 15.8 °F 86% 30.14 in 2.5 mi NW 8.1 mph - 0.01 in Snow Light Snow
3:52 AM 18.0 °F 7.7 °F 14.0 °F 84% 30.17 in 1.8 mi North 8.1 mph - 0.01 in Snow Light Snow
4:05 AM 17.6 °F 5.7 °F 12.2 °F 79% 30.14 in 2.0 mi North 10.4 mph - 0.00 in Snow Light Snow
4:09 AM 15.8 °F 5.1 °F 12.2 °F 86% 30.14 in 3.0 mi North 8.1 mph - 0.00 in Snow Light Snow
4:49 AM 15.8 °F 7.2 °F 12.2 °F 86% 30.14 in 4.0 mi NNW 5.8 mph - 0.01 in Snow Light Snow
4:52 AM 16.0 °F 7.4 °F 12.0 °F 84% 30.18 in 4.0 mi NNW 5.8 mph - 0.01 in Snow Light Snow
5:02 AM 15.8 °F 7.2 °F 12.2 °F 86% 30.15 in 4.0 mi North 5.8 mph - 0.00 in Snow Light Snow
5:52 AM 15.1 °F 7.7 °F 12.0 °F 88% 30.19 in 4.0 mi NNE 4.6 mph - 0.01 in Snow Light Snow
6:34 AM 15.8 °F 10.2 °F 10.4 °F 79% 30.15 in 5.0 mi North 3.5 mph - 0.00 in Snow Light Snow
6:52 AM 14.0 °F - 10.9 °F 88% 30.19 in 6.0 mi Calm Calm - 0.00 in Snow Light Snow
7:10 AM 12.2 °F 4.3 °F 10.4 °F 92% 30.15 in 9.0 mi North 4.6 mph - 0.00 in   Overcast
7:52 AM 14.0 °F 8.2 °F 10.0 °F 84% 30.19 in 10.0 mi NW 3.5 mph - 0.00 in   Overcast
8:52 AM 15.1 °F - 10.0 °F 80% 30.20 in 10.0 mi Calm Calm - N/A   Overcast
9:52 AM 17.1 °F 10.0 °F 12.0 °F 81% 30.20 in 10.0 mi WSW 4.6 mph - N/A   Overcast
10:52 AM 19.0 °F 11.1 °F 10.0 °F 68% 30.19 in 10.0 mi WSW 5.8 mph - 0.00 in   Overcast
11:52 AM 21.0 °F 8.6 °F 10.9 °F 65% 30.18 in 10.0 mi West 12.7 mph - N/A   Mostly Cloudy
12:44 PM 21.2 °F 9.5 °F 12.2 °F 68% 30.13 in 10.0 mi West 11.5 mph - N/A   Mostly Cloudy
12:52 PM 19.9 °F 6.2 °F 10.9 °F 68% 30.16 in 10.0 mi WSW 15.0 mph - N/A   Mostly Cloudy
1:13 PM 21.2 °F 9.5 °F 12.2 °F 68% 30.11 in 7.0 mi West 11.5 mph 19.6 mph 0.00 in Snow Light Snow
1:52 PM 21.9 °F 8.2 °F 12.9 °F 68% 30.13 in 10.0 mi WSW 16.1 mph 23.0 mph 0.00 in   Overcast
2:15 PM 21.2 °F 7.8 °F 12.2 °F 68% 30.09 in 10.0 mi WSW 15.0 mph - N/A   Overcast
2:23 PM 21.2 °F 7.8 °F 14.0 °F 74% 30.09 in 7.0 mi West 15.0 mph - 0.00 in Snow Light Snow
2:48 PM 21.2 °F 7.3 °F 15.8 °F 80% 30.08 in 8.0 mi WSW 16.1 mph - 0.00 in Snow Light Snow
2:52 PM 21.9 °F 8.7 °F 14.0 °F 72% 30.11 in 9.0 mi WSW 15.0 mph - 0.00 in Snow Light Snow
3:52 PM 21.9 °F 8.2 °F 12.9 °F 68% 30.11 in 10.0 mi West 16.1 mph - N/A   Overcast
4:29 PM 21.2 °F 6.0 °F 12.2 °F 68% 30.06 in 10.0 mi WSW 19.6 mph 23.0 mph 0.00 in   Overcast
4:37 PM 21.2 °F 7.3 °F 12.2 °F 68% 30.06 in 10.0 mi West 16.1 mph - 0.00 in   Overcast
4:52 PM 21.9 °F 7.3 °F 12.0 °F 66% 30.09 in 10.0 mi West 18.4 mph 25.3 mph 0.00 in   Overcast
5:33 PM 21.2 °F 6.4 °F 12.2 °F 68% 30.05 in 7.0 mi West 18.4 mph - 0.00 in Snow Light Snow
5:52 PM 21.0 °F 8.1 °F 12.0 °F 68% 30.09 in 10.0 mi West 13.8 mph - 0.00 in   Mostly Cloudy
6:52 PM 19.9 °F 7.3 °F 10.9 °F 68% 30.08 in 10.0 mi WSW 12.7 mph - N/A   Overcast
7:52 PM 19.9 °F 10.1 °F 10.9 °F 68% 30.07 in 10.0 mi West 8.1 mph - N/A   Overcast
8:52 PM 19.0 °F 8.2 °F 14.0 °F 81% 30.06 in 2.5 mi West 9.2 mph - 0.00 in Snow Light Snow
9:24 PM 17.6 °F 6.4 °F 15.8 °F 93% 30.02 in 1.8 mi West 9.2 mph - 0.00 in Snow Light Snow
9:29 PM 17.6 °F 5.7 °F 15.8 °F 93% 30.02 in 2.0 mi West 10.4 mph - 0.01 in Snow Light Snow
9:48 PM 17.6 °F 5.7 °F 14.0 °F 86% 30.02 in 9.0 mi West 10.4 mph - 0.01 in   Overcast
9:52 PM 18.0 °F 5.4 °F 14.0 °F 84% 30.06 in 9.0 mi West 11.5 mph - 0.01 in   Overcast
10:52 PM 16.0 °F 1.1 °F 10.0 °F 77% 30.06 in 10.0 mi WNW 15.0 mph 21.9 mph N/A   Mostly Cloudy
11:52 PM 16.0 °F 4.4 °F 7.0 °F 68% 30.06 in 10.0 mi WNW 9.2 mph 19.6 mph N/A   Overcast